dimanche 16 Sep 18
09 : 30

Trois distances:

7 km à 9h30, 14 km à 9h35 , 21 km à 9h40

Maillot Running  OFFERT à chaque participant

Inscription 10€ chez MLK Sports (14€ sur place)

Dont 2 € reversés au comité départemental de la Ligue Contre le Cancer

cette année baisse de prix et pas de buffet campagnard.

72 av. de la Libération 19360 Malemort

Tel: 05.55.17.24.02  –  mlksports@orange.fr

Voir tous les temps de chaque tour

Dernière Etape du Challenge MLK Sports / C.D.C.H.S






Informations :

anninscverif
Inscription en ligne arrétée le 15/09/2018 à 20:00
ClDosNomVoirTempsS.Cat.CC.Club-
11608GOTTY Bastien00:25:06 MCA1S/L CA BRIVE
21576BOUIN Louis00:25:06 MCA2blt
31634PINEAUD Celestin00:25:06 MCA3brive limousin triathlon
41626NAVELOT Benoit00:25:28 MSE1km19 branceilles
51620MAURICE Jacques00:26:14 MES1
61671PECOUT Nicolas00:26:39 MV11pom'sy
71627NOYE Alexandre00:26:53 MSE2
81663ZONDERLAND Julien00:26:54 MCA4
91579BRAS Loïc00:26:56 MSE3
101622VAILLE Julien00:26:58 MV12S/L ATHLETISME ST PANTALEON
111672GAUTHIER Thierry00:27:26 MSE4pom'sy
121574BOSCOURNUT Eric00:27:37 MV21a.p.c.h. hopital de brive
131615LE TOUZE Christophe00:28:11 MV13fcs uzerche nature passion
141572BONIN Philippe00:28:18 MV31
151640RAYNAL Antoine00:29:07 MCA5
161612LAIR Philippe00:29:08 MV22
171644ROUMANIE Raphaël00:29:27 MV14
181583CAUVIN Cedric00:29:40 MSE5
191575BOUCHARENC Philippe00:29:42 MV15bio'phil philippe boucharenc
201591DAVID Laurent00:29:52 MSE6
211680GIUSTI Etienne00:29:54 MSE7
221649TERROU Andre00:30:00 MV16courir pour jps & sergio
231659MAURY Elias00:30:08 MCA6
241588CROUSILLAC Dimitri00:30:14 MSE8
251580CAQUOT Jean-christophe00:30:17 MV23BORGWARNER RUNNING CLUB
261596DE SERESIN Rodolphe00:30:19 MSE9
271664TORCK Gilles00:30:42 MV17ponthier
281651THOMAS Sylvie00:30:43 FV11ESPRIT TRAIL CHANTERAC
291582CARMOUSE Jean pierre00:30:44 MSE10
301589DARFEUILLE Christelle00:30:54 FSE1
311675TUDZIARZ Yoan00:31:12 MSE11
321623MONTELET Quentin00:31:48 MSE12
331610GUILLON Rodolphe00:31:51 MSE13
341646SAULLE Cyril00:31:54 MV18S/L ATHLETISME ST PANTALEON
351638PRADIGNAC Cécile00:31:56 FSE2
361559ALEXANDRE Gérard00:31:58 MV32
371569BEYSSAC Celia00:32:01 FCA1EBTA
381673CAQUOT Frederic00:32:04 MV19borgwarner running club
391603FOURNERET Benjamin00:32:21 MSE14brive limousin triathlon
401567BECHADE Jeremy00:32:29 MSE15
411650THIBAUDEAU Florent00:32:53 MV110
421653TREPARDOUX Ludovic00:33:41 MSE16
431629PELAY Jacques00:33:55 MV33
441617MAGNE Frédéric00:34:28 MV111S/L ES USSEL
451594DELBOS Marion00:34:40 FSE3
461657VIALLE Pierre00:35:04 MSE17
471571BOCK Denis00:35:10 MV34
481661RAFFAILLAC Didier00:35:13 MV35
491677LONGY Xavier00:35:22 MV112
501676LONGY Nicolas00:35:23 MCA7
511616MAGNE Alexis00:35:27 MSE18aspo judo brive
521658VILAIN Régis00:35:39 MV24
531625NAVAU Magali00:35:49 FV12S/L PAYS DE BRIVE ATHLETIQUE C
541599DUPUY Cedric00:36:07 MSE19
551593DELAFOSSE Nicolas00:36:31 MV113
561558ALBOUZE Frederic00:36:48 MV114
571613LAMOTTE Adrien00:36:48 MES2
581684GONCALVES Camille00:36:48 FJU1
591688PRUD HOMME Helena00:36:58 FSE4
601681BOUDIE Myléne00:37:02 FSE5
611628PAITEL Anaïs00:37:07 FSE6
621645ROUSSEAU David00:37:30 MV115
631609GRANGIER Camille00:37:31 FSE7
641570BEYSSERIE Pierre jean00:37:32 MV25
651564BADKOUF Salina00:37:34 FV13
661566BARRY Emilie00:37:52 FSE8
671621MAURIN Cédric00:38:06 MSE20
681565BALLET Vincent00:38:10 MSE21
691563ARENTS Didier00:39:47 MV36
701602FORT Lucie00:40:06 FSE9
711665BILLAT Stephane00:40:11 MV116ponthier
721662CLEMENT Myriam00:40:31 FV14ponthier
731683PELISSIER Serge00:40:37 MV26S/L TULLE AC
741689GRANPEYRE Marie noelle00:40:41 FV21
751562ALONSO Laurianne00:40:41 FSE10
761598DUMORTIER Delphine00:40:41 FSE11
771630PERSON Valerie00:40:46 FV15S/L ATHLETISME ST PANTALEON
781577BOURDET Julie00:40:48 FSE12
791605FRAILE Nausicaa00:40:50 FSE13
801618MALHERE Quentin00:40:50 MES3
811642ROCHE Sonia00:40:56 FSE14uas beynat
821604FOUSSAT Michèle00:41:06 FV22
831635PLIOT Marc00:41:09 MV37
841633PIERREFITTE Mathilde00:41:42 FCA2
851632PIERREFITTE Christophe00:41:42 MV117
861590DA SILVA Andrea00:41:44 FSE15
871655VEYSSIERE Melanie00:41:56 FSE16UNION DES ASSOCIATIONS SPORTIV
881584CECOLTAN Mariana00:41:59 FV16brive limousin triathlon
891611GUILLOUX Christine00:42:08 FV17
901601FONTANNEAU Eric00:42:41 MV27
911643ROGER Julie00:42:43 FSE17cdg19
921636POUGET Christine00:43:01 FV23
931637POUGET Mathilde00:43:11 FSE18
941614LEROY Sandrine00:43:23 FV18brive limousin triathlon
951600DURTH Sandra00:43:23 FV19
961585CHAUVAC Valerie00:44:04 FV110
971687PRUD HOMME Marc00:44:06 MSE22
981560ALEXANDRE-NAUCHE Huguette00:44:08 FV24go19
991639PUISSANT Leslie00:44:24 FES1cdg19
1001679STROICH Edwige00:44:41 FV111ponthier
1011573BONNET David00:44:46 MSE23borgwainer running club
1021587COSTA Stephanie00:45:13 FV112
1031656VEYSSIERE Sylvie00:45:15 FV25
1041586COCHET Anne-laure00:45:40 FV113blt
1051674KIFFEL Maryline00:45:54 FV114
1061595DELORME Vincent00:45:54 MV118
1071647SEVIN Jeremy00:45:55 MSE24shingitai ryu
1081686MURPHY Oriane00:46:42 FSE19
1091592DE ASCENCAO Magali00:46:54 FSE20cdg 19
1101607GORY Philippe00:47:03 MV28
1111648SOULET Françoise00:47:17 FV26
1121652TISSOT Jean marie00:47:18 MV41
1131561ALLEMANDOU Karine00:47:20 FSE21cdg19
1141666MENAGER Damien00:47:26 MSE25ponthier
1151654VARENNE Margaux00:48:15 FSE22
1161581CARAMEL Aurélie00:48:15 FSE23
1171660CLUZEL Angela00:48:26 FV41
1181678LAGORCE Alexandra00:48:59 FSE24
1191685GUILLO DU BODAN Marina00:50:20 FSE25
1201597DOS SANTOS Nelly00:50:22 FSE26avb
1211682JUBERT Dorothée00:50:22 FSE27
1221641RENAUDIN Eliane00:56:45 FV51AC GIGOUZAC SAINT GERMAIN
1231568BESSONIE Didier00:56:45 MV38AC GIGOUZAC SAINT GERMAIN
1241606GONCALVES Sandra01:08:25 FSE28ponthier
1251667GOUDAL Valerie01:13:07 FV115ponthier
1261669FAUCON Corine01:13:07 FV116ponthier
1271670PEYNAUD Nadège01:13:10 FV117ponthier
1281668MAUBEAU Stephane01:18:45 MV119ponthier


13 Comments.

  • Thomas says:

    Bonjour

    merci pour cette dernière sortie aux Foulées de MLK à Lissac !!!

    merci aux bénévoles pour leur sourire …le ravito était suffisamment achalandé !!

    n’étant pas de la région ( venue de Dordogne !) je trouve le délais d’utilisation du bon d’achat chez MLK très court !!!
    je sais …dans ce cas il ne faut pas gagner..mais bon les jambes et la tête me disent autre chose !!! hahaha !!
    Trêve de plaisanterie !!! le bon est utilisable jusqu’au 6 Octobre … délais un peu court pour pouvoir l’utiliser à mon avis !!!
    j’espère pouvoir y aller lors de mon prochain trail à l’xtrail Corrèze à Argentat le samedi 22 septembre !!!
    bonne continuation

    Sylvie

  • ANDRE TERROU says:

    A mon tour je tiens à remercier Lilan et ses collaborateurs, les bénévoles ainsi que l’équipe de « jorganize » pour
    toutes ces éditions des foulées « MLK » que nous avons vécu pendant toutes ces années. Nous nous sommes
    « régalés » à chaque fois et c’est bien dommage que ça s’arrête………
    Mais c’est ainsi, et il faut bien avouer que toutes ces courses laisseront une trace indélébile et joyeuse dans nos souvenirs de coureurs amateurs.

    Bravo et encore merci pour tout !!!!!

  • laguillaumie richard says:

    Quelle belle journée !!! Merci Lilian, à tous les Bénévoles Organisateurs Copains Coureurs, Potes, l’Equipe Jorganize, trop et trés sympas….
    1 p triste pour cette derniére, sniff…. mais je sais Lilian que tu vas nous mettre en place un nouveau défi, une nouvelle course tout aussi populaire….
    Ce Rassemblement Amical de TOUS nous réunit pour aider La Ligue ne l’oublions pas !…. Donc allez allez Lilian, mon ami, remets ça !
    à + amicalement, Richard

  • black-kiki says:

    depuis que je cours, j’ai toujours connu cette épreuve, cela fait bizarre d’avoir participer à la dernière … nous attendons avec impatience la remplaçante … quoi qu’il en soit, cette matinée fût royale, un very big merci à tous

  • Marc Pliot says:

    Bonjour
    Que te dire, mon petit Lilian, que c’est dommage d’avoir participé à la dernière édition ….. c’est tellement évident !!!! Nul doute que tu vas nous pondre une nouvelle épreuve comme tu sais le faire, et pour cette nouvelle course, je te dit MERDE, 3 fois MERDE, si ça peut te sourire, cela signifiera que nous serons tous satisfait.
    Cordialement.
    Marc

  • Maigne Lilian says:

    Bonjour, quelqu’un aurait il des photos à m’envoyer dur mlksports@orange.fr? Merci

  • alexandre says:

    Vraiment toujours au top pour LILIAN et l’équipe de JORGANIZE en plus un buffet généreux pour attendre les différents résultats. Encore merci pour tout !

  • MURAT Laurent says:

    Bonjour,

    Merci beaucoup à Lilian MAIGNE ainsi qu’à toute son équipe de bénévoles sans oublier l’association JORGANIZE.
    Troisième tour des 21 kms pas facile du tout entre la chaleur, les vététistes et les randonneurs qui étaient venus faire leur sortie dominicale (j’ai même une collègue de boulot qui m’a dit qu’elle y faisait du vélo en famille et du coup éviter de venir). J’ai trébuché sur le troisième tour sur la grosse bosse de rocher en bout de piste côté Soulier mais plus de peur que de mal.
    Merci beaucoup pour la disposition des douches sur le site en bas au lieu de grimper au camping (elle était super fraîche) et donc idéales pour la récup.
    J’ai réamélioré mon chrono d’un gros quart d’heure par rapport à l’an passé : dommage que cette compétition se termine définitivement sur cette édition 2018.
    Au plaisir de découvrir la nouvelle épreuve mais avec les nouvelles technologies du boulot depuis début année dernière pas facile de s’entraîner.
    Amitiés sportives.
    Laurent

  • Cecile says:

    Bonjour,
    J’ai été enregistrée deux fois …
    Une fois à 13h42 (avec certificat médical valide) : inscription faite par moi même …
    J’ai ensuite reçu un mail à 18h01 me validant une autre inscription avec une autre référence …
    La bonne référence est celle finissant par 66 …
    Sportivement,
    Cecile

  • Sarah says:

    La ceinture porte dossard est elle autorisée?

  • Longy says:

    Bonjour y a t il un âge minimum pour participer aux 7 km ? Si oui le quel … stvp
    Merci d’avance



Laisser un commentaire






Le resenti (3 choix possibles)

Loading ... Loading ...

Le parcours (4 choix possibles)

Loading ... Loading ...

Ravitaillement (3 choix possibles)

Loading ... Loading ...

Les récompenses (3 choix possibles)

Loading ... Loading ...

La météo (2 choix possibles)

Loading ... Loading ...